{"data":{"norad_id":89484,"intl_designator":"","name":"UNKNOWN","alt_names":[],"object_type":"UNKNOWN","status":"UNKNOWN","operator":null,"country":null,"launch_date":null,"launch_site_code":null,"launch_vehicle":null,"mission":null,"orbit_class":"UNKNOWN","rcs_meters":null,"size_class":null,"mass_kg":null,"dimensions":null,"purposes":[],"wikipedia_slug":null,"has_3d_model":false,"image_url":null,"decayed_at":null,"tle_current":{"epoch":"2026-05-23T06:20:19.568832Z","epoch_age_seconds":228100,"freshness":"STALE","line1":"1 89484U          26143.26411538  .00150931  00000+0  33380-1 0  9995","line2":"2 89484  83.8086 105.4309 2753330 164.9699 205.3541  9.59955348370509","mean_motion":9.59955348,"eccentricity":0.275333,"inclination_deg":83.8086,"raan_deg":105.4309,"arg_perigee_deg":164.9699,"mean_anomaly_deg":205.3541,"bstar":0.03338,"rev_number":37050,"period_min":150.00697719953,"perigee_km":398.89658407127,"apogee_km":5548.6853499543,"semimajor_km":9351.9279670128,"source":"CELESTRAK","updated_at":"2026-05-25T13:38:11.782037Z"}}}